Dewpoint
10 9 8 6 4 6 3 3 5 6 9 14 14 10 10 11 15 19 23 25 26 27 28 29 29 30 30 31 31 31 31 31 32 33 34 35 35 34 34 33 33 33
8 9 9 6 6 5 2 3 6 11 12 9 9 9 10 13 15 19 23 26 27 28 28 29 29 30 30 31 31 30 30 30 30 31 32 33 34 34 34 34 33 34
8 6 4 3 3 2 2 6 13 11 8 8 8 8 11 16 18 22 24 26 27 28 28 29 29 29 30 30 30 30 30 31 30 30 31 32 33 33 33 34 33 33
7 5 4 4 3 2 2 8 9 8 6 6 6 7 11 16 19 21 23 26 26 26 27 28 29 29 30 30 30 30 30 30 31 30 30 31 32 33 33 33 33 33
5 5 4 3 3 2 2 6 6 4 3 4 3 5 10 17 22 23 23 24 24 25 26 27 28 29 29 29 29 29 29 29 29 31 31 31 32 31 31 32 32 32
4 4 4 2 1 3 6 5 4 3 3 4 4 6 18 22 22 24 24 24 24 25 26 27 27 28 28 28 28 28 28 28 29 30 30 30 30 29 30 31 32 32
1 -1 -2 -2 1 5 2 0 1 5 6 6 12 17 14 15 18 22 24 25 25 25 26 26 26 27 27 28 27 28 28 28 28 29 30 30 30 29 29 30 31 31
-5 -4 -3 -2 -1 -0 1 1 4 4 6 7 7 8 11 12 18 21 23 25 26 26 27 27 26 26 26 27 27 27 27 28 28 28 28 28 28 28 28 30 31 31
-5 -3 -1 -0 -0 -1 -1 -3 -5 -4 -1 1 4 4 6 11 17 20 20 21 24 26 27 27 28 27 27 27 27 27 27 27 28 28 27 27 28 28 29 28 28 30
-2 -3 -9 -10 -10 -7 -7 -7 -7 -4 -1 -0 1 2 3 8 16 19 19 21 22 23 25 27 28 27 28 27 27 26 26 26 26 27 27 27 27 27 27 27 28 28
-7 -9 -10 -10 -10 -9 -9 -7 -4 -3 -0 2 3 3 6 12 16 17 20 20 18 17 19 22 24 26 27 27 26 26 26 26 25 25 26 26 27 27 29 28 28 27
-10 -10 -11 -11 -10 -9 -8 -7 -4 -1 2 3 5 4 10 10 12 16 15 12 12 13 15 17 20 22 24 25 26 25 25 25 25 25 26 26 27 27 29 29 29 29
-11 -12 -12 -11 -11 -10 -7 -3 -1 2 3 5 7 8 8 10 11 10 10 10 11 12 14 15 18 20 21 22 23 24 24 24 25 26 26 26 26 27 29 30 30 29
-11 -11 -11 -10 -9 -4 -4 -3 -1 0 2 3 5 6 9 9 10 10 11 11 12 14 15 16 18 19 20 21 22 23 24 24 25 26 26 27 27 27 27 28 29 29
-11 -11 -10 -9 -7 -6 -4 -2 -1 1 2 3 5 6 7 8 9 9 9 11 12 13 15 16 18 19 21 22 23 23 24 24 24 25 26 27 27 26 26 27 27 28
-9 -8 -8 -6 -5 -4 -3 -2 -1 0 2 2 4 6 7 7 7 8 10 12 13 14 16 17 18 19 22 24 25 26 25 25 25 26 26 26 26 26 26 26 26 27
-7 -7 -5 -4 -4 -3 -2 -1 -0 0 1 3 4 5 6 8 9 10 11 12 13 15 16 17 18 20 23 25 27 28 28 27 26 26 27 27 27 26 26 25 25 26
-5 -4 -3 -3 -2 -2 -1 -0 1 2 2 3 5 5 7 8 9 10 11 13 14 16 17 18 19 22 25 26 27 28 29 29 28 27 27 27 27 27 26 25 24 25
-3 -2 -2 -2 -1 0 0 1 2 2 3 5 5 6 8 8 10 10 12 13 15 16 17 18 19 23 26 27 28 29 30 30 30 29 28 28 27 27 26 25 24 24
-1 -1 -1 -0 1 1 2 2 3 4 4 5 6 8 8 9 10 10 11 13 15 17 18 20 21 24 26 28 29 30 30 30 29 30 29 28 28 27 26 26 26 26
0 1 1 2 2 2 2 3 4 4 5 6 7 7 8 9 9 11 12 14 16 17 19 20 22 26 28 29 30 31 31 31 31 31 30 29 29 28 28 27 27 27
1 2 3 3 3 3 3 4 4 5 5 6 7 7 9 10 10 12 13 14 16 18 19 21 24 28 30 30 31 31 31 30 30 29 29 30 29 30 29 30 29 29
1 2 3 3 3 3 4 4 4 5 5 7 7 8 8 9 10 11 13 14 16 18 20 22 24 27 29 29 30 31 30 28 27 26 26 26 27 28 28 29 30 30
3 3 3 3 4 4 4 4 4 5 6 7 7 7 8 10 11 12 13 15 17 18 20 22 24 26 29 29 30 30 30 26 24 24 23 24 25 26 26 27 28 29
3 3 4 4 4 4 4 4 5 6 7 8 8 9 9 10 12 13 14 16 18 20 23 24 25 27 29 30 31 31 30 30 29 28 27 27 27 27 27 27 27 29
3 4 4 4 4 5 5 5 6 7 7 8 8 9 10 11 13 16 18 20 24 24 24 25 27 27 28 30 29 27 27 28 28 29 28 28 28 28 28 28 28 28